Theta_e
306 307 309 306 305 305 304 306 302 303 304 309 309 311 314 317 318 318 319 319 320 318 318 317 316 316 315 314 314 315 313 312 314 315 316 315 315 316 314 316 313 313 311 312
304 306 307 304 306 307 305 305 305 306 305 313 315 315 313 313 317 317 318 319 320 318 318 318 317 315 314 314 313 315 312 312 313 314 313 314 315 316 316 311 312 313 311 311
301 305 305 301 306 307 307 308 307 303 309 313 311 313 313 314 317 317 318 320 319 319 318 319 318 317 315 315 315 314 311 312 311 312 310 313 313 313 314 316 312 314 312 312
303 305 294 307 313 312 309 309 310 311 311 312 313 316 316 319 318 318 320 320 320 320 319 319 319 317 317 315 314 312 311 312 310 310 309 310 313 312 315 316 315 313 311 312
302 300 304 306 309 310 307 307 312 311 311 312 316 315 316 320 320 322 323 323 321 322 321 320 318 317 316 313 313 312 310 311 309 308 308 310 310 313 315 316 314 312 311 311
306 299 295 307 311 313 314 303 314 312 312 314 314 305 311 321 323 324 324 323 322 321 320 319 318 318 316 313 312 310 310 309 308 309 310 310 313 314 316 315 314 311 311 314
304 303 304 313 310 313 301 305 315 315 316 318 314 317 322 324 323 325 323 322 321 320 317 317 318 317 314 312 310 312 314 309 310 312 313 314 314 317 315 314 314 314 312 313
306 302 298 315 314 305 317 322 319 317 320 321 321 321 321 321 321 321 319 318 319 318 315 315 315 315 312 311 313 313 311 310 311 314 312 312 316 316 316 316 314 312 311 311
307 307 321 323 323 325 325 320 319 320 323 322 320 319 319 319 319 318 317 317 317 316 312 313 313 313 309 311 313 312 311 312 313 314 314 317 316 315 313 312 310 309 309 308
302 309 314 321 323 322 321 320 321 323 324 322 319 319 318 318 318 317 316 316 316 314 310 308 309 309 311 312 313 312 311 313 314 315 315 317 313 312 312 313 310 308 307 307
303 305 310 315 320 320 319 320 321 323 323 321 320 318 318 317 317 316 316 316 317 315 310 307 308 309 311 312 313 311 312 313 314 313 312 313 312 312 313 317 311 309 307 307
300 312 313 313 314 314 319 319 321 321 320 320 320 319 318 317 318 316 315 315 314 313 310 307 308 310 312 313 313 312 312 310 311 311 313 312 312 314 303 301 299 296 296 301
306 314 316 312 314 317 320 322 322 321 321 319 320 320 319 318 317 313 314 313 312 311 310 309 309 309 312 314 313 313 314 313 312 309 310 311 313 311 310 309 297 296 294 293
318 317 312 313 311 317 320 321 319 321 321 321 320 320 319 317 314 313 312 312 313 312 309 309 309 310 312 313 313 313 314 302 310 309 310 313 312 311 309 309 311 309 297 297
314 317 317 313 313 316 320 319 318 317 318 318 320 319 317 314 312 312 313 312 312 311 309 310 310 310 313 313 312 312 311 311 312 310 311 310 310 309 309 310 310 307 303 298
313 314 317 317 315 318 318 319 317 317 318 318 318 317 316 314 313 312 312 312 311 310 311 310 310 312 313 313 313 312 312 305 302 310 308 309 310 309 308 309 307 306 305 303
308 309 315 316 317 319 318 319 319 319 319 318 317 317 314 313 312 311 311 313 313 313 313 312 312 313 313 315 314 311 311 312 304 307 308 309 309 308 309 306 304 303 304 301
312 312 320 320 319 318 318 319 320 320 319 318 318 316 313 312 311 312 312 313 313 312 313 314 314 314 313 313 313 311 310 310 310 310 310 309 309 310 305 303 302 302 303 301
314 315 319 319 320 320 320 320 321 321 320 319 316 315 314 313 313 313 314 312 310 310 312 314 304 309 313 310 309 310 310 310 309 310 310 305 308 306 303 302 301 301 301 301
313 313 315 318 319 318 316 321 322 320 320 319 317 315 313 313 313 313 313 311 312 312 315 312 313 312 311 309 303 308 309 309 308 309 308 307 304 303 302 298 300 300 301 300
310 311 313 315 317 316 318 318 318 318 319 319 317 315 314 314 313 313 312 308 314 312 315 305 311 309 311 308 304 305 308 310 310 309 306 304 303 301 301 301 299 299 299 299
309 310 311 313 316 316 318 317 320 319 319 318 317 315 313 312 313 313 314 312 311 300 309 310 310 296 306 300 307 308 309 309 308 306 304 302 301 300 299 299 298 298 299 299
312 311 311 312 317 321 322 322 320 319 318 318 316 314 312 311 311 308 307 313 311 303 310 311 295 291 294 307 309 310 309 307 304 303 302 301 300 299 299 298 298 298 298 299
314 312 311 315 321 315 319 320 321 320 319 317 316 315 314 310 310 312 313 303 297 301 307 302 297 289 291 308 309 308 307 305 303 301 300 294 300 299 298 298 298 298 299 299
314 315 314 317 320 315 321 321 319 319 317 315 315 315 315 314 312 312 311 307 295 304 308 288 288 290 306 309 306 304 302 302 301 300 300 299 299 298 298 298 298 299 300 299
313 314 315 320 320 319 319 319 317 316 314 312 313 313 313 314 313 312 309 304 308 301 306 305 306 307 309 306 304 302 301 300 300 299 299 299 299 299 299 300 299 299 299 298
312 303 317 314 317 318 318 317 316 313 312 313 312 313 313 312 311 309 303 309 309 307 306 307 308 304 306 304 302 301 301 299 295 300 300 301 300 300 300 299 299 299 297 296
Wind_Speed
18 22 19 6 26 21 18 15 12 12 9 4 16 19 6 9 7 14 15 16 16 15 13 11 11 9 8 8 7 7 7 3 4 1 3 3 3 3 1 1 4 5 4 4
21 24 16 7 18 18 4 12 13 15 4 10 9 6 4 2 8 13 14 16 16 14 14 12 11 10 7 7 7 7 8 5 4 6 2 3 0 2 3 3 3 4 3 4
18 23 23 28 20 18 12 13 19 11 2 8 3 4 4 2 4 10 13 15 15 13 13 11 10 9 8 7 7 7 6 7 7 4 1 1 3 2 3 2 3 3 3 4
13 16 24 10 8 13 24 23 26 3 2 5 10 8 4 5 5 6 12 14 14 12 12 11 9 9 8 7 7 7 6 6 4 3 3 2 1 4 3 4 3 2 3 1
11 16 17 15 6 4 5 8 8 4 5 13 13 6 7 5 6 8 12 13 12 12 12 10 10 8 8 8 7 8 7 6 4 3 2 3 5 3 1 2 1 4 4 4
11 18 24 9 12 11 11 10 7 3 8 14 13 6 6 8 9 11 13 12 13 14 12 10 8 8 7 7 7 6 8 5 4 3 3 4 3 2 0 3 3 4 3 6
13 10 12 8 7 17 13 5 3 7 11 14 8 5 12 11 12 11 12 14 14 12 10 8 7 7 7 7 6 6 3 5 5 4 2 3 3 3 2 5 4 5 7 7
12 16 15 3 24 31 8 10 11 10 14 15 16 14 13 13 12 13 13 14 13 10 10 8 6 5 6 7 6 5 5 6 5 4 5 5 4 4 5 6 7 9 10 10
8 5 1 9 12 14 12 11 10 14 18 17 15 15 15 14 13 13 14 11 10 10 11 8 5 5 6 7 7 5 5 5 5 5 4 4 3 5 5 6 9 8 6 5
12 17 17 7 13 7 9 8 13 15 16 16 15 15 15 13 12 11 11 11 9 14 12 9 6 6 6 8 7 7 6 6 4 2 3 2 4 5 5 4 4 5 4 4
5 5 25 7 5 14 11 14 15 16 16 15 15 15 15 13 12 11 10 9 8 8 11 10 6 6 7 8 6 6 7 6 4 5 6 6 8 7 5 5 5 4 5 4
4 13 14 2 12 24 16 16 17 17 16 15 14 15 15 12 10 10 10 9 7 10 11 11 9 10 10 7 9 6 5 5 5 5 2 6 5 5 14 14 11 13 14 4
6 14 5 1 13 12 15 17 17 15 14 16 15 13 14 11 9 10 10 10 10 13 11 11 10 11 9 9 7 7 3 4 0 2 4 5 3 4 4 6 16 16 7 11
12 13 6 6 2 16 6 15 15 16 14 13 14 13 12 11 11 11 11 10 10 13 11 12 11 11 8 8 7 4 3 2 4 6 5 3 3 4 6 6 4 6 5 5
13 12 11 19 23 27 11 16 18 16 16 14 12 13 12 13 11 10 11 11 10 13 12 13 12 9 9 7 7 6 5 4 3 5 7 4 5 7 7 4 5 7 6 1
10 24 18 11 35 24 17 19 18 17 15 15 13 13 13 12 10 11 11 11 10 10 11 10 9 9 7 7 5 4 3 5 4 4 6 7 7 3 6 6 7 7 7 6
6 23 13 10 12 19 18 16 16 16 15 14 14 14 13 12 11 10 11 10 9 9 8 8 7 10 8 6 5 5 5 6 8 5 7 7 5 6 5 7 8 7 6 4
6 31 10 11 13 16 16 17 17 17 15 16 15 14 13 12 10 10 10 10 9 9 7 6 6 5 7 6 5 6 6 4 7 8 7 3 5 5 8 8 8 7 7 5
20 7 5 10 15 15 14 15 18 17 15 15 15 13 12 11 11 10 10 10 10 9 7 7 7 3 6 5 4 7 7 6 4 4 4 6 7 7 7 6 6 7 7 7
8 4 2 3 15 3 8 6 20 16 15 14 14 13 12 11 11 11 10 9 8 6 9 9 7 5 1 7 3 7 9 6 3 5 6 8 7 7 6 6 7 7 7 7
7 3 6 7 14 11 9 9 13 15 16 14 13 13 12 11 11 11 10 8 7 7 11 10 7 8 8 8 6 8 9 1 6 7 9 7 7 6 7 7 7 7 7 7
6 9 9 7 5 17 15 11 10 15 15 14 14 14 13 11 11 10 9 8 8 11 9 8 7 5 6 8 8 7 2 7 9 8 7 7 6 6 7 6 7 7 6 7
11 12 9 9 9 13 19 17 14 14 15 14 13 13 11 9 9 9 8 10 8 6 1 5 10 9 5 4 6 9 9 9 9 8 6 6 6 6 6 6 7 7 6 5
2 4 6 7 11 10 13 16 14 14 13 13 12 12 10 8 9 7 9 10 11 10 6 4 5 6 3 6 3 8 8 8 8 8 6 7 6 7 7 6 6 6 5 9
3 4 5 6 12 10 9 14 12 12 13 12 12 10 10 8 8 10 9 10 14 10 7 3 3 4 4 3 10 11 10 9 7 8 6 6 6 7 7 6 6 6 8 9
3 3 4 5 10 11 9 10 10 10 10 10 9 8 8 9 10 10 10 11 10 11 8 7 7 5 3 11 11 10 9 8 8 8 7 7 7 6 6 7 8 10 9 9
3 3 4 6 5 9 11 11 11 11 11 10 10 9 11 11 10 11 11 11 9 7 9 8 7 9 11 11 11 10 8 8 7 8 6 6 6 7 8 8 8 7 7 5
Wind_Direction
233 260 208 7 292 227 241 230 219 246 225 315 179 220 96 145 161 145 153 150 144 146 156 155 147 145 161 146 143 142 137 190 111 249 175 102 34 342 52 263 359 60 12 56
246 247 206 194 263 276 302 322 321 237 225 74 74 17 44 312 167 155 149 152 146 151 150 149 146 159 157 153 153 156 137 162 178 263 186 90 318 328 358 57 72 52 17 360
234 239 252 198 204 212 223 212 247 281 142 104 85 108 339 225 143 149 148 146 145 153 143 146 148 157 160 162 157 155 153 190 194 225 271 136 291 28 35 353 35 45 3 339
232 242 246 245 212 288 185 187 243 227 232 83 90 79 85 89 142 151 144 138 138 141 136 145 146 144 155 166 165 156 176 221 167 204 237 180 212 64 14 8 30 53 282 285
230 237 252 224 230 312 224 194 160 192 94 113 101 117 99 128 131 120 123 127 134 128 131 140 145 152 159 165 173 153 199 189 163 188 200 105 79 80 21 275 235 246 217 228
213 232 238 260 195 197 247 225 219 160 136 125 125 189 162 138 118 105 110 119 121 123 130 137 144 147 166 169 158 174 216 131 164 183 131 110 120 105 263 297 229 277 239 242
219 234 237 168 130 347 202 199 205 151 133 130 131 95 114 107 105 106 109 114 117 127 135 134 137 147 188 153 164 187 194 159 159 170 174 146 170 208 214 254 262 263 266 260
225 220 229 247 177 187 145 100 111 118 118 103 113 120 125 124 122 119 124 124 133 138 120 118 143 171 166 160 167 185 181 187 168 178 244 168 179 228 251 250 254 255 250 257
317 299 0 177 121 123 124 122 123 115 113 123 132 138 135 135 134 136 134 143 142 129 121 110 127 180 167 168 176 229 197 202 199 201 222 228 226 252 264 255 240 275 296 6
340 346 319 146 105 96 124 116 124 122 127 137 141 141 139 138 139 139 145 148 156 131 131 126 156 172 197 167 185 225 192 219 223 223 248 256 290 276 237 271 347 318 325 317
291 352 288 11 144 180 151 134 133 132 137 139 141 142 139 140 144 146 149 145 156 151 136 136 167 201 181 191 213 197 205 218 222 225 199 229 224 251 260 237 227 245 249 250
215 190 244 221 330 302 145 147 137 137 142 139 146 140 142 144 146 146 146 142 156 135 138 147 186 187 191 189 210 206 207 214 230 254 274 234 244 245 228 238 230 241 244 246
157 251 204 150 308 327 144 138 133 136 135 140 138 137 140 141 146 136 140 155 165 137 141 160 168 192 196 193 192 222 248 318 207 254 262 261 285 290 308 265 241 244 247 103
195 191 180 139 144 353 136 130 129 129 133 128 131 134 132 137 132 151 153 159 159 135 148 172 186 203 160 176 198 219 202 235 286 294 300 299 290 301 281 280 312 67 64 187
304 260 241 141 136 230 155 141 136 136 132 132 136 132 140 137 154 154 151 153 157 142 165 187 185 158 177 172 188 221 206 241 236 253 267 313 290 274 281 0 3 95 114 209
292 300 255 184 178 184 151 151 145 137 140 140 140 142 142 143 147 147 151 155 158 163 175 170 161 159 170 174 196 208 248 259 252 295 297 289 282 351 8 7 29 31 69 34
317 308 223 190 155 146 165 152 142 141 142 145 144 139 140 142 143 151 153 156 164 153 161 170 166 151 160 176 192 240 234 193 221 239 256 275 39 11 9 36 23 11 79 48
211 255 222 187 158 166 168 155 142 140 147 148 139 142 142 142 151 155 153 158 154 149 165 162 155 159 156 164 206 241 254 213 203 234 258 76 42 13 47 35 10 11 17 61
242 275 278 203 163 169 171 151 140 144 143 140 146 144 143 147 150 152 150 164 162 157 165 135 105 155 167 142 218 241 257 257 234 279 66 46 64 32 49 39 2 28 23 24
233 233 252 92 106 262 24 158 135 137 136 144 143 141 147 149 150 152 160 171 168 167 147 131 160 191 184 141 191 256 271 250 277 55 60 63 48 42 39 45 35 31 32 31
211 221 242 221 153 142 124 319 117 137 140 147 145 150 145 141 151 151 165 170 152 123 135 145 174 183 211 169 190 234 263 127 64 60 56 48 46 42 43 42 36 39 35 35
215 225 231 208 163 136 140 135 193 141 143 145 152 144 141 145 148 159 180 147 122 138 152 171 191 35 131 156 222 237 266 79 71 63 56 53 49 50 50 36 45 46 32 48
203 229 204 204 152 137 135 157 140 150 147 149 144 140 144 146 155 163 152 126 143 172 128 175 128 125 136 245 267 104 82 68 65 57 62 58 71 57 68 42 59 72 22 61
141 167 214 193 132 98 149 136 146 150 143 136 136 139 141 150 159 156 129 143 140 117 92 107 135 139 179 250 118 107 103 92 85 97 95 64 71 74 55 48 61 57 64 64
28 153 239 186 137 124 136 131 146 141 135 131 136 141 152 152 146 125 142 123 127 139 130 147 163 140 201 260 79 68 63 61 82 89 81 81 75 80 88 68 59 52 62 65
115 195 204 151 143 134 144 153 153 145 139 142 145 152 152 124 119 125 133 145 145 141 149 163 173 189 158 95 90 91 90 84 74 79 88 83 81 87 79 71 62 55 45 43
163 312 162 175 135 148 155 177 149 147 146 152 151 150 124 126 142 139 143 147 149 174 152 152 138 104 97 91 86 83 86 74 79 96 97 88 79 74 69 67 62 65 84 50